Weather History for Joplin, MO

Change the Weather History Date:

Tuesday, January 29, 2013

  Actual Average Record
Temperature  
Mean Temperature 55 °F 36 °F  
Max Temperature 69 °F 46 °F 73 °F (2011)
Min Temperature 40 °F 26 °F -4 °F (1966)
Degree Days  
Heating Degree Days 10 29  
Month to date heating degree days 783 867  
Since 1 July heating degree days 2280 2484  
Cooling Degree Days 0 0  
Month to date cooling degree days 1 0  
Year to date cooling degree days 1 0  
Growing Degree Days 4 (Base 50)    
Moisture  
Dew Point 53 °F    
Average Humidity 87    
Maximum Humidity 100    
Minimum Humidity 73    
Precipitation  
Precipitation 1.58 in 0.06 in 1.58 in (2013)
Month to date precipitation 2.44 1.89  
Year to date precipitation 2.44 1.89  
Snow  
Snow 0.00 in - - ()
Month to date snowfall 0.0  
Snow Depth 0.00 in    
Sea Level Pressure  
Sea Level Pressure 29.56 in    
Wind  
Wind Speed 15 mph (SE)    
Max Wind Speed 33 mph    
Max Gust Speed 88 mph    
Visibility 6 miles    
Events Rain , Thunderstorm    
T = Trace of Precipitation, MM = Missing Value Source: NWS Daily Summary

Daily Weather History Graph

Daily Weather History Graph

Search for Another Location

Airport:

Trip Planner

Search our weather history database for the weather conditions in past years. The results will help you decide how hot, cold, wet, or windy it might be!

Date:

Astronomy

Jan. 29, 2013 Rise Set
Actual Time 7:22 AM CST 5:39 PM CST
Civil Twilight 6:55 AM CST 6:07 PM CST
Nautical Twilight 6:24 AM CST 6:38 PM CST
Astronomical Twilight 5:53 AM CST 7:09 PM CST
Moon 8:31 PM CST (1/29) 8:25 AM CST (1/29)
Length of Visible Light 11h 12m
Length of Day
10h 16m
Waning Gibbous, 93% of the Moon is Illuminated
Jan 29
Waning Gibbous
Feb 3
Last Quarter
Feb 10
New
Feb 17
First Quarter
Feb 25
Full

Hourly Weather History & Observations

Time (CST) Temp. Windchill Dew Point Humidity Pressure Visibility Wind Dir Wind Speed Gust Speed Precip Events Conditions
12:53 AM 68.0 °F - 59.0 °F 73% 29.72 in 10.0 mi South 23.0 mph 33.4 mph N/A   Scattered Clouds
1:53 AM 66.9 °F - 57.9 °F 73% 29.71 in 10.0 mi South 24.2 mph 31.1 mph N/A   Scattered Clouds
2:53 AM 66.9 °F - 57.9 °F 73% 29.71 in 10.0 mi South 18.4 mph 28.8 mph N/A   Partly Cloudy
3:53 AM 66.9 °F - 57.9 °F 73% 29.70 in 10.0 mi South 20.7 mph 34.5 mph N/A   Mostly Cloudy
4:51 AM 66.2 °F - 57.2 °F 73% 29.70 in 10.0 mi South 20.7 mph 29.9 mph N/A   Mostly Cloudy
4:53 AM 66.9 °F - 57.9 °F 73% 29.68 in 10.0 mi South 21.9 mph 26.5 mph N/A   Mostly Cloudy
5:53 AM 66.2 °F - 59.0 °F 78% 29.68 in 10.0 mi South 21.9 mph 29.9 mph N/A   Overcast
6:53 AM 66.9 °F - 59.0 °F 76% 29.60 in 10.0 mi South 25.3 mph 38.0 mph N/A   Mostly Cloudy
7:53 AM 66.9 °F - 59.0 °F 76% 29.63 in 10.0 mi South 19.6 mph 28.8 mph N/A   Mostly Cloudy
8:53 AM 66.9 °F - 60.1 °F 79% 29.60 in 10.0 mi South 23.0 mph 32.2 mph N/A   Clear
9:37 AM 68.0 °F - 60.8 °F 78% 29.62 in 10.0 mi South 17.3 mph 28.8 mph N/A   Overcast
9:53 AM 68.0 °F - 60.1 °F 76% 29.57 in 10.0 mi South 18.4 mph 31.1 mph N/A   Overcast
10:27 AM 66.2 °F - 60.8 °F 83% 29.57 in 5.0 mi South 27.6 mph 38.0 mph 0.00 in Rain Light Rain
10:53 AM 69.1 °F - 61.0 °F 75% 29.54 in 10.0 mi South 26.5 mph 34.5 mph 0.00 in   Mostly Cloudy
11:19 AM 69.8 °F - 60.8 °F 73% 29.54 in 10.0 mi South 21.9 mph 36.8 mph 0.00 in Rain , Thunderstorm Light Rain
11:32 AM 62.6 °F - 55.4 °F 77% 29.57 in 10.0 mi NW 19.6 mph 26.5 mph 0.00 in Thunderstorm Thunderstorm
11:43 AM 55.4 °F - 53.6 °F 94% 29.59 in 1.8 mi NW 8.1 mph - 0.08 in Rain , Thunderstorm Light Thunderstorms and Rain
11:53 AM 55.0 °F - 53.1 °F 93% 29.52 in 3.0 mi North 12.7 mph - 0.12 in Rain , Thunderstorm Thunderstorms and Rain
12:00 PM 53.6 °F - 53.6 °F 100% 29.56 in 2.0 mi NW 11.5 mph - 0.07 in Rain , Thunderstorm Thunderstorms and Rain
12:07 PM 53.6 °F - 53.6 °F 100% 29.59 in 0.8 mi NW 8.1 mph - 0.22 in Rain , Thunderstorm Thunderstorms and Rain
12:23 PM 53.6 °F - 53.6 °F 100% 29.56 in 1.2 mi North 9.2 mph 26.5 mph 0.46 in Rain Heavy Rain
12:31 PM 53.6 °F - 53.6 °F 100% 29.55 in 5.0 mi NW 9.2 mph 16.1 mph 0.47 in Rain Light Rain
12:53 PM 53.1 °F - 53.1 °F 100% 29.52 in 3.0 mi North 6.9 mph - 0.51 in Rain Rain
12:56 PM 53.6 °F - 53.6 °F 100% 29.54 in 2.5 mi NNE 4.6 mph - 0.01 in Rain Rain
1:03 PM 53.6 °F - 53.6 °F 100% 29.54 in 4.0 mi North 4.6 mph - 0.02 in Rain Light Rain
1:12 PM 53.6 °F - 53.6 °F 100% 29.57 in 2.5 mi Calm Calm - 0.04 in Rain , Thunderstorm Light Thunderstorms and Rain
1:21 PM 53.6 °F - 51.8 °F 94% 29.55 in 1.5 mi NNE 3.5 mph - 0.10 in Rain , Thunderstorm Light Thunderstorms and Rain
1:35 PM 53.6 °F - 51.8 °F 94% 29.52 in 2.0 mi North 5.8 mph - 0.16 in Rain , Thunderstorm Light Thunderstorms and Rain
1:53 PM 53.1 °F - 53.1 °F 100% 29.50 in 4.0 mi NNE 4.6 mph - 0.20 in Rain , Thunderstorm Light Thunderstorms and Rain
2:03 PM 53.6 °F - 53.6 °F 100% 29.53 in 4.0 mi ENE 6.9 mph - 0.02 in Rain , Thunderstorm Light Thunderstorms and Rain
2:26 PM 53.6 °F - 53.6 °F 100% 29.53 in 3.0 mi Calm Calm - 0.08 in Rain , Thunderstorm Light Thunderstorms and Rain
2:41 PM 53.6 °F - 53.6 °F 100% 29.51 in 5.0 mi East 5.8 mph - 0.10 in Rain , Thunderstorm Light Thunderstorms and Rain
2:53 PM 53.1 °F - 53.1 °F 100% 29.51 in 4.0 mi East 5.8 mph - 0.12 in Rain , Thunderstorm Light Thunderstorms and Rain
3:12 PM 53.6 °F - 53.6 °F 100% 29.51 in 2.5 mi East 5.8 mph - 0.06 in Rain , Thunderstorm Light Thunderstorms and Rain
3:24 PM 53.6 °F - 53.6 °F 100% 29.51 in 3.0 mi East 5.8 mph - 0.11 in Rain , Thunderstorm Light Thunderstorms and Rain
3:53 PM 54.0 °F - 54.0 °F 100% 29.49 in 4.0 mi ESE 6.9 mph - 0.22 in Rain , Thunderstorm Thunderstorms and Rain
4:03 PM 53.6 °F - 53.6 °F 100% 29.49 in 5.0 mi East 6.9 mph - 0.02 in Rain Light Rain
4:53 PM 53.1 °F - 52.0 °F 96% 29.47 in 8.0 mi East 9.2 mph - 0.09 in Rain Light Rain
5:53 PM 53.1 °F - 52.0 °F 96% 29.47 in 10.0 mi SE 8.1 mph - 0.02 in Rain Light Rain
6:53 PM 53.1 °F - 51.1 °F 93% 29.48 in 5.0 mi ESE 6.9 mph - 0.07 in Rain Rain
7:53 PM 48.9 °F - 48.0 °F 97% 29.48 in 2.5 mi NW 33.4 mph 87.5 mph 0.12 in Rain Heavy Rain
8:05 PM 44.6 °F 38.1 °F 44.6 °F 100% 29.52 in 2.5 mi WNW 13.8 mph 38.0 mph 0.03 in Rain Rain
8:12 PM 42.8 °F 35.1 °F 42.8 °F 100% 29.52 in 7.0 mi WNW 16.1 mph - 0.03 in Rain Light Rain
8:21 PM 42.8 °F 36.2 °F 42.8 °F 100% 29.53 in 7.0 mi WNW 12.7 mph - 0.04 in Rain Light Rain
8:53 PM 42.1 °F 34.9 °F 41.0 °F 96% 29.52 in 9.0 mi WNW 13.8 mph - 0.09 in Rain Light Rain
9:53 PM 41.0 °F 35.2 °F 39.9 °F 96% 29.56 in 9.0 mi West 9.2 mph 23.0 mph 0.02 in   Overcast
10:05 PM 39.2 °F 37.0 °F 39.2 °F 100% 29.54 in 8.0 mi NNW 3.5 mph - N/A   Overcast
10:53 PM 41.0 °F 39.0 °F 39.9 °F 96% 29.52 in 9.0 mi East 3.5 mph - N/A   Overcast
11:53 PM 41.0 °F 38.0 °F 39.9 °F 96% 29.50 in 8.0 mi NW 4.6 mph - N/A   Overcast